Tracking 19817 objects as of 20-Aug-2019
HD Live streaming from Space Station
objects crossing your sky now

THORAD DELTA 1 DEB

Track THORAD DELTA 1 DEB now!
10-day predictions


NORAD ID: 8152
Int'l Code: 1974-089S
Perigee: 1,385.9 km
Apogee: 1,476.1 km
Inclination: 101.6 °
Period: 114.3 minutes
Semi major axis: 7801 km
RCS: 0.0989 m2 (small)
Launch date: November 15, 1974
Source: United States (US)
Launch site: AIR FORCE WESTERN TEST RANGE (AFWTR)

Note: This is SATELLITE DEBRIS
aabbcc
Your satellite tracking list
Your tracking list is empty




NASA's NSSDC Master Catalog

Two Line Element Set (TLE):
1  8152U 74089S   19231.89207566 -.00000016 +00000-0 +16512-3 0  9999
2  8152 101.5911 198.4661 0057779 178.0736 239.7065 12.59783977056683
Source of the keplerian elements: AFSPC